INMARSAT 3-F2

Last updated on Thu Nov 21 2024 00:02:40 GMT+0000 (Coordinated Universal Time)

1 24307U 96053A 24325.01127938 .00000014 00000+0 00000+0 0 9999 2 24307 8.5462 59.5222 0005792 168.0306 205.9558 0.99998574103182
UTC large
Height (km)
Speed (km/s)
/
Latitude / Longitude
Inclination (degrees)
Orbital Period (minutes)
Azimuth
Elevation
Range (km)
Doppler Factor

Next 0 passes for location: London (51.5072 / 0.1276)

Sorry there are no passes over London.